Flag for Colombia Weather past 2 weeks in Medellin, Colombia

Now
66 °F

Thunderstorms. Scattered clouds.


Feels Like: 66 °F
Forecast: N/A
Wind: 8 mph from East

Location: Rionegro / J. M. Cordova

Current Time: Sep 21, 2014 at 5:10:57 PM

Latest Report: Sep 21, 2014 at 4:00 PM


Visibility: N/A

Pressure: 30.22 "Hg

Humidity: 73%

Dew point: 57 °F

Location of MedellinLocation

Historic Weather in Medellin — Graph

°F

Medellin temperature yesterday

Maximum temperature yesterday: 70 °F (at 2:00 PM)
Minimum temperature yesterday: 55 °F (at 5:00 AM)
Average temperature yesterday: 60 °F

Past Weeks' High & Low Weather Summary

 TemperatureHumidityPressure
High73 °F (Sep 7, 2:00 PM)100% (Sep 10, 6:00 AM)30.41 "Hg (Sep 10, 6:00 AM)
Low50 °F (Sep 9, 6:00 AM)36% (Sep 9, 11:00 AM)30.12 "Hg (Sep 11, 4:00 PM)
Average62 °F78%30.28 "Hg
* Reported Sep 6 4:00 PM — Sep 21 4:00 PM, Medellin, Weather by CustomWeather, © 2014

Note: Actual official high and low records may vary slightly from our data, if they occured in-between our weather recording intervals... More about our weather records

Advertising

Medellin weather history for previous 24 hours

 ConditionsComfort  
Time TempWeatherWind HumidityBarometerVisibility
4:00 PM
Sep 21
66 °FThunderstorms. Scattered clouds.8 mph73%30.22 "HgN/A
3:00 PM70 °FBroken clouds.9 mph60%30.23 "HgN/A
2:00 PM68 °FScattered clouds.9 mph69%30.26 "HgN/A
1:00 PM64 °FThunderstorms. Scattered clouds.10 mph83%30.30 "HgN/A
12:00 PM70 °FScattered showers. Scattered clouds.6 mph53%30.33 "HgN/A
11:00 AM66 °FScattered clouds.5 mph68%30.36 "HgN/A
10:00 AM63 °FBroken clouds.No wind77%30.38 "HgN/A
9:00 AM59 °FDrizzle. Mostly cloudy.No wind88%30.38 "Hg5 mi
8:00 AM57 °FFog.No wind94%30.37 "Hg2 mi
7:00 AM55 °FDrizzle. More clouds than sun.No wind100%30.35 "Hg2 mi
6:00 AM55 °FFog.No wind100%30.32 "Hg4 mi
5:00 AM57 °FFog.No wind94%30.31 "Hg4 mi
4:00 AM57 °FPartly cloudy.No wind100%30.30 "Hg5 mi
3:00 AM57 °FDrizzle. Mostly cloudy.No wind94%30.30 "Hg5 mi
2:00 AM57 °FFog.No wind100%30.31 "Hg3 mi
1:00 AM57 °FDrizzle. Mostly cloudy.No wind100%30.34 "Hg3 mi
12:00 AM57 °FPassing clouds.No wind100%30.34 "Hg4 mi
11:00 PM
Sep 20
57 °FThunderstorms. Partly cloudy.2 mph100%30.37 "Hg4 mi
10:00 PM57 °FPassing clouds.No wind94%30.38 "HgN/A
9:00 PM57 °FPassing clouds.No windN/A30.32 "HgN/A
8:00 PM59 °FPassing clouds.No wind94%30.28 "HgN/A
7:00 PM59 °FPassing clouds.No wind94%30.27 "HgN/A
6:00 PM61 °FPassing clouds.No wind88%30.23 "HgN/A
5:00 PM63 °FScattered showers. Broken clouds.No wind77%30.22 "HgN/A
Weather by CustomWeather, © 2014

See weather overviewHow to use our weather pages